{"data":{"norad_id":57438,"epoch":"2026-09-20T14:59:58.610688Z","epoch_age_seconds":117124,"freshness":"FRESH","line1":"1 57438U 23105J   26263.62498392 -.00000540  00000+0 -10079-4 0  9991","line2":"2 57438  43.0023 239.0451 0001640 262.4679  97.5986 15.27576350175392","mean_motion":15.2757635,"eccentricity":0.000164,"inclination_deg":43.0023,"raan_deg":239.0451,"arg_perigee_deg":262.4679,"mean_anomaly_deg":97.5986,"bstar":-1.0079e-5,"rev_number":17539,"period_min":94.266973955181,"perigee_km":481.93478916232,"apogee_km":484.18526178667,"semimajor_km":6861.1970254745,"source":"CELESTRAK","updated_at":"2026-09-21T09:00:33.626172Z"}}